Regional Weather Roundup
Issued by NWS

Home | Current Version | Previous Version | Graphics & Text | Print | Product List | Glossary On
Versions: 1 2 3 4 5 6 7 8 9 10 11 12 13 14 15 16 17 18 19 20 21 22 23 24 25 26 27 28 29 30 31 32 33 34 35 36 37 38 39 40 41 42 43 44 45 46 47 48 49 50
314
ASUS45 KABQ 281310
RWRNM
NEW MEXICO REGIONAL WEATHER ROUNDUP
NATIONAL WEATHER SERVICE ALBUQUERQUE NM
700 AM MDT WED SEP 28 2016

NOTE: "FAIR" MEANS FEW OR NO CLOUDS BELOW 12,000 FEET AGL WITH NO
       SIGNIFICANT WEATHER OR OBSTRUCTIONS TO VISION.

      THIS PRODUCT IS RELEASED AS TWO VERSIONS.  ONE VERSION NEAR
      THE TOP OF THE HOUR CONTAINING PRELIMINARY DATA FROM ALBUQUERQUE
      AND OTHER STATIONS.  A FINAL VERSION WITH ADDITIONAL DATA IS
      ISSUED ABOUT 10 MINUTES AFTER THE HOUR.

NMZ501-503-504-510>518-281400-
NORTHWEST PLATEAU/NORTHCENTRAL MOUNTAINS

CITY           SKY/WX    TMP DP  RH WIND       PRES   REMARKS
FARMINGTON     FAIR      46  36  68 E7        30.27R
LOS ALAMOS     FAIR      55  26  32 CALM      30.37S
SANTA FE       FAIR      47  29  49 N12       30.32R
TAOS           FAIR      36  19  51 N8        30.39R WCI  29

$$
NMZ402-403-502-505>509-281400-
WESTCENTRAL MOUNTAINS/SOUTHWEST MOUNTAINS

CITY           SKY/WX    TMP DP  RH WIND       PRES   REMARKS
GALLUP         MOCLDY    45  40  82 CALM      30.32R
SILVER CITY    FAIR      54  48  80 E6        30.25S

$$
NMZ407-409-411-412-281400-
SOUTHERN DESERTS

CITY           SKY/WX    TMP DP  RH WIND       PRES   REMARKS
DEMING         FAIR      55  50  83 NE6       30.21R
LAS CRUCES     FAIR      55  52  90 CALM      30.23R
HOLLOMAN AFB   FAIR      53  48  83 NW5       30.20R
ALAMOGORDO     FAIR      54  46  76 NE3       30.21S
T OR C         FAIR      56  48  74 W5        30.23R

$$
NMZ519>523-281400-
CENTRAL VALLEYS/CENTRAL HIGHLANDS

CITY           SKY/WX    TMP DP  RH WIND       PRES   REMARKS
ALBUQUERQUE    FAIR      56  37  49 N9        30.28R
DOUBLE EAGLE   PTCLDY    46  39  76 CALM      30.31R
MORIARTY ARPT  FAIR      37  31  81 CALM      30.34R
CLINES CORNERS FAIR      47  38  71 NW10      30.36R
BELEN          FAIR      50  41  71 CALM      30.27R
SOCORRO        FAIR      52  45  76 W3        30.26R

$$
NMZ524>526-539-540-281400-
SOUTHCENTRAL MOUNTAINS

CITY           SKY/WX    TMP DP  RH WIND       PRES   REMARKS
RUIDOSO        FAIR      50  41  71 W9        30.36R

$$
NMZ527>531-281400-
NORTHEAST HIGHLANDS/NORTHEAST PLAINS

CITY           SKY/WX    TMP DP  RH WIND       PRES   REMARKS
LAS VEGAS      FAIR      44  31  60 N9        30.33R
RATON          FAIR      38  31  76 NE8       30.31R WCI  32
CLAYTON        FAIR      54  36  50 N9        30.22R

$$
NMZ532>537-281400-
EASTCENTRAL PLAINS

CITY           SKY/WX    TMP DP  RH WIND       PRES   REMARKS
TUCUMCARI      FAIR      53  33  46 W7        30.19R
CANNON AFB     FAIR      53  42  67 NW9       30.21R
CLOVIS AIRPORT FAIR      48  39  71 NW8       30.20R

$$
NMZ028-029-538-281400-
SOUTHEAST PLAINS

CITY           SKY/WX    TMP DP  RH WIND       PRES   REMARKS
ROSWELL        FAIR      50  45  83 N5        30.19R
ARTESIA        FAIR      50  50 100 N5        30.19R
CARLSBAD       FAIR      52  50  93 NW6       30.16R
HOBBS          CLEAR     50  50 100 W7        30.19R


$$




USA.gov is the U.S. government's official web portal to all federal, state and local government web resources and services.